This demonstration page uses our WeatherBlox Daily Observations layout. Learn more.

39.92423, -83.80882

Hourly Observations for August 16, 2018

Temp ( °F °C ) Dew Point ( °F °C ) Humidity (%) Winds ( mph kmh ) Pressure ( in mb ) Visibility ( mi km ) Precip ( " mm )
12:56 am 00:56 Mostly Cloudy 68 20 66 18.9 93 93 S 6 9 30.04 1017 10 16.0934 0 0.0254
1:56 am 01:56 Mostly Clear 68 20 66 18.9 93 93 S 6 9 30.02 1017 10 16.0934 0 0.0254
2:56 am 02:56 Partly Cloudy 68 20 66 18.9 93 93 SSE 7 11 30.01 1016 10 16.0934 0 0
3:56 am 03:56 Cloudy with Light Rain 68 20 67 19.4 96 96 S 9 15 30.03 1017 10 16.0934 0 0.0254
4:56 am 04:56 Cloudy 68 20 68 20 100 100 S 9 15 30.03 1017 10 16.0934 0 0.0254
5:17 am 05:17 Cloudy 68 20 68 20 100 100 SSW 8 13 30.03 1017 10 16.0934 0 0
5:56 am 05:56 Cloudy with Light Rain 68 20 68 20 100 100 SSW 6 9 30.03 1017 10 16.0934 0.01 0.254
6:07 am 06:07 Cloudy with Rain 68 20 68 20 100 100 SSW 7 11 30 1016 10 16.0934 0.01 0.254
6:56 am 06:56 Partly Cloudy with Light Rain 68 20 68 20 100 100 S 9 15 30.02 1017 10 16.0934 0.05 1.27
7:56 am 07:56 Partly Cloudy 68 20 68 20 100 100 SSE 10 17 30.04 1017 10 16.0934 0 0.0254
8:56 am 08:56 Cloudy 70 21.1 69 20.6 97 97 S 8 13 30.04 1017 10 16.0934 0 0
9:16 am 09:16 Cloudy with Light Rain 70 21 70 21 100 100 S 10 17 30.03 1017 10 16.0934 0.01 0.254
9:56 am 09:56 Cloudy with Light Rain 69 20.6 69 20.6 100 100 SSW 10 17 30.06 1018 8 12.87472 0.03 0.762
10:56 am 10:56 Cloudy with Light Rain 70 21.1 70 21.1 100 100 SSW 8 13 30.05 1018 10 16.0934 0.01 0.254
11:56 am 11:56 Cloudy 72 22.2 71 21.7 97 97 SSW 13 20 30.06 1018 10 16.0934 0 0.0254
12:22 pm 12:22 Cloudy 73 23 72 22 94 94 SSW 17 28 30.03 1017 10 16.0934 0.01 0.254
12:56 pm 12:56 Cloudy with Light Rain 72 22.2 70 21.1 94 94 SSW 14 22 30.05 1018 10 16.0934 0.01 0.254
1:56 pm 13:56 Cloudy 72 22.2 70 21.1 94 94 SSW 13 20 30.05 1018 10 16.0934 0 0.0254
2:56 pm 14:56 Cloudy 73 22.8 71 21.7 94 94 SSW 12 19 30.02 1017 10 16.0934 0 0.0254
3:56 pm 15:56 Cloudy 74 23.3 71 21.7 91 91 SSW 13 20 30.01 1016 10 16.0934 0 0
4:56 pm 16:56 Cloudy 73 22.8 71 21.7 94 94 SW 9 15 30.01 1016 10 16.0934 0 0
5:56 pm 17:56 Cloudy 74 23.3 72 22.2 94 94 SSW 9 15 30 1016 10 16.0934 0 0
6:56 pm 18:56 Cloudy 75 23.9 72 22.2 90 90 S 7 11 29.99 1016 10 16.0934 0 0
7:56 pm 19:56 Cloudy 74 23.3 73 22.8 97 97 S 5 7 30.01 1016 10 16.0934 0 0
8:56 pm 20:56 Cloudy 74 23.3 73 22.8 97 97 S 3 6 29.99 1016 10 16.0934 0 0.0254
9:15 pm 21:15 Cloudy with Light Rain 73 23 73 23 100 100 Calm 30 1016 10 16.0934 0 0.0254
9:30 pm 21:30 Cloudy 73 23 73 23 100 100 SSE 8 13 30 1016 10 16.0934 0 0.0254
9:46 pm 21:46 Cloudy with Heavy Rain 73 23 73 23 100 100 SSW 6 9 30 1016 5 8.0467 0.15 3.81
9:56 pm 21:56 Cloudy with Light Rain 73 22.8 73 22.8 100 100 S 5 7 30.01 1016 8 12.87472 0.19 4.826
10:25 pm 22:25 Cloudy 73 23 73 23 100 100 SSW 5 7 30 1016 10 16.0934 0 0.0254
10:56 pm 22:56 Cloudy 73 22.8 73 22.8 100 100 S 7 11 30.02 1017 10 16.0934 0 0.0254
11:36 pm 23:36 Cloudy with Rain 73 23 73 23 100 100 SSW 7 11 30 1016 6 9.65604 0.03 0.762
11:43 pm 23:43 Cloudy with Heavy Rain 72 22 72 22 100 100 VRB 5 7 30 1016 3 4.82802 0.11 2.794
11:56 pm 23:56 Cloudy with Light Rain 72 22.2 72 22.2 100 100 S 7 11 30 1016 6 9.65604 0.12 3.048

Powered by AerisWeather